This is the latest recevied weather packets stored in our database for station/object AA8FM-13. If no packets are shown the sender has not sent any weather packets the latest 1 day(s).
| Time | Temp. | Humidity | Pressure | Rain* | Wind** | Luminosity | Snow |
|---|---|---|---|---|---|---|---|
| 1778000860 | 23.89° C | 47% | 1007.6 hPa | 0 mm | 0.89 m/s, 332° | 686 W/m² | - |
| 1778000557 | 24.44° C | 50% | 1007.6 hPa | 0 mm | 0.89 m/s, 140° | 672 W/m² | - |
| 1778000252 | 24.44° C | 50% | 1007.7 hPa | 0 mm | 0.89 m/s, 217° | 678 W/m² | - |
| 1777999948 | 23.89° C | 47% | 1007.6 hPa | 0 mm | 1.34 m/s, 53° | 646 W/m² | - |
| 1777999644 | 23.89° C | 48% | 1007.7 hPa | 0 mm | 3.58 m/s, 125° | 678 W/m² | - |
| 1777999341 | 23.89° C | 49% | 1007.8 hPa | 0 mm | 0.89 m/s, 233° | 666 W/m² | - |
| 1777999039 | 23.89° C | 48% | 1007.7 hPa | 0 mm | 4.02 m/s, 20° | 667 W/m² | - |
| 1777998738 | 24.44° C | 47% | 1008.2 hPa | 0 mm | 4.02 m/s, 173° | 379 W/m² | - |
| 1777998434 | 23.89° C | 48% | 1007.7 hPa | 0 mm | 2.24 m/s, 55° | 654 W/m² | - |
| 1777998132 | 23.33° C | 46% | 1008 hPa | 0 mm | 3.58 m/s, 157° | 649 W/m² | - |
| 1777997828 | 23.89° C | 47% | 1008 hPa | 0 mm | 1.79 m/s, 252° | 645 W/m² | - |
| 1777997526 | 23.33° C | 49% | 1008.1 hPa | 0 mm | 2.24 m/s, 219° | 665 W/m² | - |
| 1777997223 | 23.33° C | 49% | 1008 hPa | 0 mm | 2.24 m/s, 152° | 624 W/m² | - |
| 1777996921 | 23.33° C | 48% | 1008 hPa | 0 mm | 1.34 m/s, 38° | 629 W/m² | - |
| 1777996617 | 22.78° C | 52% | 1008.1 hPa | 0 mm | 2.68 m/s, 321° | 669 W/m² | - |
| 1777996313 | 22.78° C | 50% | 1008.2 hPa | 0 mm | 0.89 m/s, 19° | 599 W/m² | - |
| 1777996010 | 22.78° C | 50% | 1008.1 hPa | 0 mm | 1.79 m/s, 174° | 593 W/m² | - |
| 1777995706 | 22.78° C | 52% | 1008.4 hPa | 0 mm | 0.45 m/s, 231° | 593 W/m² | - |
| 1777995403 | 22.78° C | 50% | 1008.4 hPa | 0 mm | 2.68 m/s, 139° | 571 W/m² | - |
| 1777995100 | 23.33° C | 50% | 1008.1 hPa | 0 mm | 1.79 m/s, 143° | 584 W/m² | - |
| 1777994797 | 22.78° C | 53% | 1008.1 hPa | 0 mm | 1.34 m/s, 268° | 598 W/m² | - |
| 1777994492 | 22.78° C | 52% | 1008.4 hPa | 0 mm | 0.89 m/s, 9° | 575 W/m² | - |
| 1777994188 | 22.22° C | 53% | 1008.3 hPa | 0 mm | 0.89 m/s, 55° | 575 W/m² | - |
| 1777993886 | 22.22° C | 52% | 1008.5 hPa | 0 mm | 1.34 m/s, 152° | 584 W/m² | - |
| 1777993581 | 22.78° C | 54% | 1008.7 hPa | 0 mm | 0.45 m/s, 210° | 576 W/m² | - |
* Rain latest hour (hover to see other rain measurements)
** Current wind speed in m/s (hover to see current wind gust speed)